SES-9

Last updated on Thu Nov 21 2024 00:02:43 GMT+0000 (Coordinated Universal Time)

1 41380U 16013A 24324.88790911 -.00000344 00000+0 00000+0 0 9995 2 41380 0.0168 305.8146 0000616 234.7180 306.8269 1.00270125 31688
UTC large
Height (km)
Speed (km/s)
/
Latitude / Longitude
Inclination (degrees)
Orbital Period (minutes)
Azimuth
Elevation
Range (km)
Doppler Factor

Next 0 passes for location: London (51.5072 / 0.1276)

Sorry there are no passes over London.